• In Hungary
  • List of Countries
  • For 7 days
  • Water Temperature
  • Satellite Maps
  • Weather Map
  • News
  • Weather Widgets
  • user-avatar
    Login

    Hourly Weather Puerto Galera

    Today, 24 May, Thursday

    Time Temperature Precipitation Wind Pressure Humidity
    00:00 +28°C° 0.5 mm 2 mps 752 mmHg 89%
    01:00 +28°C° 0.5 mm 2 mps 752 mmHg 89%
    02:00 +28°C° 0 mm 2 mps 752 mmHg 89%
    03:00 +28°C° 0.1 mm 2 mps 752 mmHg 89%
    04:00 +28°C° 0.1 mm 2 mps 752 mmHg 89%
    05:00 +28°C° 0.1 mm 2 mps 752 mmHg 90%
    06:00 +29°C° 0 mm 2 mps 752 mmHg 84%
    07:00 +31°C° 0 mm 3 mps 752 mmHg 77%
    08:00 +33°C° 0 mm 3 mps 752 mmHg 71%
    09:00 +35°C° 0 mm 3 mps 752 mmHg 64%
    10:00 +37°C° 0 mm 3 mps 752 mmHg 57%
    11:00 +39°C° 0 mm 3 mps 752 mmHg 50%
    12:00 +38°C° 0.1 mm 3 mps 752 mmHg 53%
    13:00 +37°C° 0.1 mm 3 mps 752 mmHg 55%
    14:00 +37°C° 0.1 mm 3 mps 751 mmHg 57%
    15:00 +36°C° 0.3 mm 3 mps 751 mmHg 61%
    16:00 +35°C° 0.3 mm 3 mps 751 mmHg 65%
    17:00 +34°C° 0.3 mm 2 mps 751 mmHg 69%
    18:00 +32°C° 0.5 mm 2 mps 751 mmHg 74%
    19:00 +31°C° 0.5 mm 2 mps 752 mmHg 80%
    20:00 +30°C° 0.5 mm 2 mps 752 mmHg 85%
    21:00 +29°C° 0.6 mm 2 mps 752 mmHg 85%
    22:00 +29°C° 0.6 mm 2 mps 752 mmHg 85%
    23:00 +29°C° 0.6 mm 2 mps 753 mmHg 86%

    Tomorrow, 25 May, Friday

    Time Temperature Precipitation Wind Pressure Humidity
    00:00 +29°C° 0.2 mm 2 mps 752 mmHg 86%
    01:00 +28°C° 0.2 mm 2 mps 752 mmHg 86%
    02:00 +28°C° 0.2 mm 2 mps 752 mmHg 86%
    03:00 +28°C° 0.4 mm 2 mps 752 mmHg 87%
    04:00 +28°C° 0.4 mm 2 mps 752 mmHg 87%
    05:00 +28°C° 0.4 mm 2 mps 751 mmHg 88%
    06:00 +29°C° 0.1 mm 2 mps 752 mmHg 83%
    07:00 +31°C° 0.1 mm 2 mps 752 mmHg 79%
    08:00 +32°C° 0.1 mm 2 mps 753 mmHg 74%
    09:00 +35°C° 0.1 mm 3 mps 753 mmHg 68%
    10:00 +36°C° 0.1 mm 3 mps 752 mmHg 62%
    11:00 +37°C° 0.1 mm 3 mps 752 mmHg 56%
    12:00 +36°C° 0.8 mm 3 mps 752 mmHg 62%
    13:00 +35°C° 0.8 mm 3 mps 752 mmHg 67%
    14:00 +34°C° 0.8 mm 3 mps 751 mmHg 73%
    15:00 +34°C° 0.3 mm 2 mps 751 mmHg 72%
    16:00 +34°C° 0.3 mm 2 mps 751 mmHg 72%
    17:00 +34°C° 0.3 mm 2 mps 751 mmHg 71%
    18:00 +32°C° 0.1 mm 2 mps 751 mmHg 76%
    19:00 +30°C° 0.1 mm 2 mps 752 mmHg 81%
    20:00 +29°C° 0.1 mm 1 mps 752 mmHg 86%
    21:00 +29°C° 0.1 mm 1 mps 752 mmHg 87%
    22:00 +29°C° 0.1 mm 2 mps 753 mmHg 88%
    23:00 +28°C° 0.1 mm 2 mps 753 mmHg 89%

    Day after tomorrow, 26 May, Saturday

    Time Temperature Precipitation Wind Pressure Humidity
    00:00 +28°C° 0 mm 1 mps 753 mmHg 88%
    01:00 +28°C° 0 mm 1 mps 752 mmHg 88%
    02:00 +28°C° 0 mm 1 mps 752 mmHg 87%
    03:00 +28°C° 0 mm 1 mps 752 mmHg 87%
    04:00 +28°C° 0 mm 1 mps 752 mmHg 87%
    05:00 +27°C° 0 mm 1 mps 752 mmHg 87%
    06:00 +29°C° 0.1 mm 2 mps 752 mmHg 81%
    07:00 +31°C° 0.1 mm 2 mps 753 mmHg 75%
    08:00 +34°C° 0.1 mm 2 mps 753 mmHg 69%
    09:00 +36°C° 0 mm 2 mps 753 mmHg 62%
    10:00 +37°C° 0 mm 2 mps 753 mmHg 55%
    11:00 +39°C° 0 mm 2 mps 753 mmHg 48%
    12:00 +38°C° 0.5 mm 2 mps 753 mmHg 54%
    13:00 +37°C° 0.5 mm 2 mps 752 mmHg 60%
    14:00 +36°C° 0.5 mm 3 mps 752 mmHg 65%
    15:00 +35°C° 0.4 mm 2 mps 752 mmHg 68%
    16:00 +35°C° 0.4 mm 2 mps 752 mmHg 70%
    17:00 +34°C° 0.4 mm 2 mps 751 mmHg 73%
    18:00 +32°C° 0.5 mm 2 mps 752 mmHg 78%
    19:00 +30°C° 0.5 mm 2 mps 752 mmHg 83%
    20:00 +29°C° 0.5 mm 1 mps 753 mmHg 88%
    21:00 +29°C° 0.3 mm 1 mps 753 mmHg 89%
    22:00 +29°C° 0.3 mm 1 mps 753 mmHg 89%
    23:00 +29°C° 0.3 mm 1 mps 753 mmHg 90%

    27 May, Sunday

    Time Temperature Precipitation Wind Pressure Humidity
    00:00 +29°C° 0.2 mm 1 mps 753 mmHg 89%
    01:00 +28°C° 0.2 mm 1 mps 753 mmHg 88%
    02:00 +28°C° 0.2 mm 1 mps 752 mmHg 87%
    03:00 +28°C° 0 mm 1 mps 752 mmHg 87%
    04:00 +28°C° 0 mm 1 mps 752 mmHg 86%
    05:00 +28°C° 0 mm 1 mps 752 mmHg 86%
    06:00 +29°C° 0 mm 1 mps 753 mmHg 81%
    07:00 +31°C° 0 mm 2 mps 753 mmHg 76%
    08:00 +34°C° 0 mm 2 mps 753 mmHg 70%
    09:00 +35°C° 0.1 mm 2 mps 753 mmHg 64%
    10:00 +37°C° 0.1 mm 2 mps 753 mmHg 57%
    11:00 +39°C° 0.1 mm 2 mps 753 mmHg 50%
    12:00 +38°C° 0.7 mm 2 mps 753 mmHg 56%
    13:00 +37°C° 0.7 mm 2 mps 752 mmHg 62%
    14:00 +36°C° 0.7 mm 2 mps 752 mmHg 68%
    15:00 +35°C° 1.1 mm 2 mps 752 mmHg 72%
    16:00 +34°C° 1.1 mm 2 mps 751 mmHg 76%
    17:00 +32°C° 1.1 mm 2 mps 751 mmHg 79%
    18:00 +31°C° 0.7 mm 2 mps 752 mmHg 83%
    19:00 +30°C° 0.7 mm 1 mps 752 mmHg 86%
    20:00 +29°C° 0.7 mm 1 mps 753 mmHg 90%
    21:00 +29°C° 0.2 mm 1 mps 753 mmHg 90%
    22:00 +29°C° 0.2 mm 1 mps 753 mmHg 90%
    23:00 +28°C° 0.2 mm 1 mps 753 mmHg 91%

    28 May, Monday

    Time Temperature Precipitation Wind Pressure Humidity
    00:00 +28°C° 0.2 mm 1 mps 753 mmHg 91%
    01:00 +28°C° 0.2 mm 1 mps 753 mmHg 91%
    02:00 +28°C° 0.2 mm 1 mps 752 mmHg 90%
    03:00 +28°C° 0 mm 1 mps 752 mmHg 90%
    04:00 +28°C° 0 mm 1 mps 752 mmHg 90%
    05:00 +27°C° 0 mm 1 mps 752 mmHg 90%
    06:00 +29°C° 0 mm 2 mps 753 mmHg 83%
    07:00 +31°C° 0 mm 2 mps 753 mmHg 77%
    08:00 +34°C° 0 mm 2 mps 753 mmHg 71%
    09:00 +36°C° 0 mm 2 mps 753 mmHg 63%
    10:00 +38°C° 0 mm 2 mps 753 mmHg 55%
    11:00 +39°C° 0 mm 2 mps 753 mmHg 48%
    12:00 +38°C° 0.1 mm 2 mps 752 mmHg 53%
    13:00 +37°C° 0.1 mm 2 mps 752 mmHg 58%
    14:00 +36°C° 0.1 mm 2 mps 751 mmHg 64%
    15:00 +35°C° 0.4 mm 2 mps 751 mmHg 67%
    16:00 +35°C° 0.4 mm 2 mps 751 mmHg 69%
    17:00 +34°C° 0.4 mm 2 mps 751 mmHg 72%
    18:00 +32°C° 0.1 mm 2 mps 752 mmHg 78%
    19:00 +31°C° 0.1 mm 1 mps 752 mmHg 83%
    20:00 +29°C° 0.1 mm 1 mps 753 mmHg 88%
    21:00 +29°C° 0 mm 1 mps 753 mmHg 89%
    22:00 +29°C° 0 mm 1 mps 753 mmHg 89%
    23:00 +27°C° 0 mm 0 mps 753 mmHg 90%

    29 May, Tuesday

    Time Temperature Precipitation Wind Pressure Humidity
    00:00 +28°C° 0 mm 1 mps 753 mmHg 90%
    01:00 +28°C° 0 mm 1 mps 752 mmHg 89%
    02:00 +28°C° 0 mm 1 mps 752 mmHg 89%
    03:00 +28°C° 0 mm 1 mps 752 mmHg 89%
    04:00 +28°C° 0 mm 1 mps 752 mmHg 89%
    05:00 +28°C° 0 mm 1 mps 752 mmHg 89%
    06:00 +29°C° 0 mm 1 mps 752 mmHg 83%
    07:00 +31°C° 0 mm 1 mps 753 mmHg 77%
    08:00 +32°C° 0 mm 2 mps 753 mmHg 71%
    09:00 +35°C° 0 mm 2 mps 753 mmHg 64%
    10:00 +37°C° 0 mm 2 mps 753 mmHg 56%
    11:00 +39°C° 0 mm 2 mps 753 mmHg 48%
    12:00 +38°C° 0.4 mm 2 mps 752 mmHg 53%
    13:00 +37°C° 0.4 mm 2 mps 752 mmHg 58%
    14:00 +37°C° 0.4 mm 2 mps 751 mmHg 62%
    15:00 +36°C° 0.4 mm 2 mps 751 mmHg 66%
    16:00 +35°C° 0.4 mm 2 mps 751 mmHg 69%
    17:00 +34°C° 0.4 mm 2 mps 751 mmHg 73%
    18:00 +32°C° 0.3 mm 2 mps 751 mmHg 78%
    19:00 +30°C° 0.3 mm 2 mps 752 mmHg 83%
    20:00 +29°C° 0.3 mm 1 mps 752 mmHg 88%
    21:00 +29°C° 0 mm 1 mps 752 mmHg 88%
    22:00 +29°C° 0 mm 1 mps 752 mmHg 89%
    23:00 +28°C° 0 mm 1 mps 752 mmHg 89%
    Show more